Weather in Polivanovo

Russia / Ulyanovsk Oblast     53°36′48″N   47°22′08″E
temp.,
°C
wind,
m/s
gust,
m/s
humid.,
%
clouds,
%
prec.,
mm/h
press.,
hPa
HPBL,
m
21 january, thu
thu2101:00−21w349816 0.0 102289
04:00−21w249937 0.0 102258
07:00−18w369890 0.0 1022134
10:00−16w4109587 0.0 1023248
13:00−11w599297 0.0 1022340
16:00−10w5109098 0.0 1021395
19:00−12wsw41092100 0.0 1021289
22:00−12wsw41093100 0.1 1020388
22 january, fri
fri2201:00−12sw4995100 1.2 1018410
04:00−13w3893100 1.9 1018426
07:00−15w3595100 0.0 1018118
10:00−15w229697 0.0 101842
13:00−11w238996 0.0 1019257
16:00−9sw129498 0.0 1019112
19:00−10sse1297100 0.3 101964
22:00−10se2396100 0.9 1021119
23 january, sat
sat2301:00−10se379699 0.6 1021228
04:00−9se3696100 1.1 1021188
07:00−9sse3697100 0.2 1021175
10:00−7sse4697100 0.3 1021174
13:00−1s4799100 0.1 1020246
16:00+1sw49100100 0.3 1020457
19:00+1sw3997100 0.0 1020370
22:00+1sw3997100 0.0 1020387
24 january, sun
sun2401:00+1sw3898100 0.0 1021350
04:00+1sw3798100 0.0 1022245
07:00+1sw2698100 0.0 1022175
10:00+1ssw4898100 0.0 1023288
13:00+1ssw49100100 0.0 1023317
16:00+1ssw41198100 0.1 1023406
19:000s4990100 0.0 1024340
22:000ssw41091100 0.0 1025402
25 january, mon
mon2501:00−2ssw5109399 0.0 1026344
04:00−3s499796 0.0 1026317
07:00−3s4896100 0.0 1027322
10:00−6sse4997100 0.0 1027279
13:00−3sse5109899 0.0 1026365
16:00−3sse61097100 0.1 1026458
19:00−3sse51096100 0.0 1025518
22:00−3s51096100 0.1 1025530